Terminal Aerodrome Forecast
Issued by NWS Jackson, MS

Home | Current Version | Previous Version | Text Only | Print | Product List | Glossary On
Versions: 1 2 3 4 5 6 7 8 9 10 11 12
000
FTUS44 KJAN 182300
TAFGLH
TAF
KGLH 182320Z 1900/1924 04003KT P6SM SCT100
     FM190900 04002KT 4SM BR SKC
     FM191500 01005KT P6SM SKC
     FM191800 03008KT P6SM FEW250=

USA.gov is the U.S. government's official web portal to all federal, state and local government web resources and services.